Location: Guferjoch
(46.7462°N, 8.4506°E)
Time: 23:49:26
(UTC+00:00)

Cosmos 841 Rocket - Pass Details

Date: 14 July 2020
Orbit: 747 x 772 km, 74.0° (Epoch: 03 August)

Event Time Altitude Azimuth Distance (km) Brightness Sun altitude
Rises 02:50:07 0° 338° (NNW) 3,209 7.0 -8.4°
Reaches altitude 10° 02:52:29 10° 339° (NNW) 2,282 6.3 -8.1°
Maximum altitude 02:57:41 83° 68° (ENE) 766 3.6 -7.4°
Drops below altitude 10° 03:02:51 10° 157° (SSE) 2,280 5.8 -6.8°
Sets 03:05:13 0° 158° (SSE) 3,205 6.5 -6.5°
